Regional Weather Roundup
Issued by NWS

Home | Current Version | Previous Version | Graphics & Text | Print | Product List | Glossary On
Versions: 1 2 3 4 5 6 7 8 9 10 11 12 13 14 15 16 17 18 19 20 21 22 23 24 25 26 27 28 29 30 31 32 33 34 35 36 37 38 39 40 41 42 43 44 45 46 47 48 49
000
ASUS45 KSLC 290810
RWRUT

UTAH REGIONAL WEATHER ROUNDUP
NATIONAL WEATHER SERVICE SALT LAKE CITY UT
200 AM MDT SAT AUG 29 2015

UTZ001>011-023>025-290900-

NORTHERN UTAH

CITY           SKY/WX    TMP DP  RH WIND       PRES   REMARKS
BRIGHAM CITY   CLEAR     68  45  43 CALM      30.06R
HILL AFB       PTCLDY    73  37  27 E17       30.08F
LOGAN          CLEAR     58  46  64 NW5       30.09R
OGDEN          PTCLDY    73  38  27 S14       30.05S
PROVO AIRPORT  CLEAR     66  39  37 E3        30.11S
SALT LAKE CITY PTCLDY    76  36  23 S12       30.04S
VERNAL         MOCLDY    67  45  45 W6        30.20S
WENDOVER       MOCLDY    72  45  37 NE8       30.02F
HEBER CITY     CLEAR     52  43  71 SE5       30.21S
WEST JORDAN    CLEAR     72  36  26 S3        30.09S

$$

UTZ012>022-026-027-290900-

SOUTHERN/CENTRAL UTAH

CITY           SKY/WX    TMP DP  RH WIND       PRES   REMARKS
BLANDING       CLEAR     68  31  25 N9        30.28S
BRYCE CANYON   CLEAR     51  44  77 W8        30.38S
CEDAR CITY     CLEAR     69  43  38 SE8       30.18S
DELTA          CLEAR     69  33  26 S10       30.09S
HANKSVILLE     CLEAR     63  50  63 CALM      30.14F
MILFORD        CLEAR     66  42  41 S6        30.12S
MOAB/CYNLANDS  CLEAR     65  41  41 W5        30.11F
PRICE          CLEAR     64  36  35 N7        30.23S
ST GEORGE      SUNNY     82  48  30 E12       29.98S
KANAB          CLEAR     66  52  59 N7        30.21S

$$

REGIONAL REPORTS     COLORADO/ARIZONA

CITY           SKY/WX    TMP DP  RH WIND       PRES   REMARKS
CRAIG, CO      CLEAR     48  43  82 CALM      30.31S
GRAND JUNCTION CLEAR     64  45  49 SE13      30.17S
RIFLE          CLEAR     58  46  64 SW3       30.26S
MONTROSE       MOCLDY    62  46  55 E7        30.28R
CORTEZ         CLEAR     52  43  71 E6        30.23S
PAGE, AZ       CLEAR     76  40  27 SW5       30.10R
GRAND CANYON   CLEAR     50  42  74 NE5       30.30F
KINGMAN        CLEAR     72  51  47 CALM      30.02S
FLAGSTAFF      CLEAR     51  48  89 CALM      30.33S

$$

REGIONAL REPORTS    NEVADA/IDAHO/WYOMING

CITY           SKY/WX    TMP DP  RH WIND       PRES   REMARKS
LAS VEGAS, NV  PTCLDY    91  52  26 SW3       29.84R
ELY            MOCLDY    57  43  59 S10       30.20F
ELKO           MOCLDY    63  50  62 NE7       30.05F
POCATELLO, ID  CLEAR     75  39  27 VRB3      30.03F
EVANSTON, WY   CLEAR     61  37  41 SE3       30.31S
ROCK SPRINGS   CLEAR     60  27  28 SE8       30.30S
KEMMERER       CLEAR     54  32  43 NW10      30.33S

$$


USA.gov is the U.S. government's official web portal to all federal, state and local government web resources and services.